Waarnemingen

Advertentie
Mijn weer
AWG, Nederland (6208): temperatuur & dauwpunt: 22.04.2017 02:00:00 - 28.04.2017 02:00:00 (CEST)AWG, Nederland (6208): windsnelheid & windstoten: 22.04.2017 02:00:00 - 28.04.2017 02:00:00 (CEST)AWG, Nederland (6208): windrichting: 22.04.2017 02:00:00 - 28.04.2017 02:00:00 (CEST)AWG, Nederland (6208): luchtdruk: 22.04.2017 02:00:00 - 28.04.2017 02:00:00 (CEST)AWG, Nederland (6208): zicht: 22.04.2017 02:00:00 - 28.04.2017 02:00:00 (CEST)
Datum & Tijd tt [°C] td [°C] ff [km/u] ff [kn] fx [km/u] fx [kn] dd ppp [hPa] vv [km]
28.04.2017 02:00:00 7,8 4,5 22 12 25 14 WNW 1012,1 10
28.04.2017 01:00:00 8,0 5,1 24 13 25 14 W 1012,4 10
28.04.2017 00:00:00 7,7 5,8 26 14 29 16 W 1012,3 10
27.04.2017 23:00:00 7,5 6,2 24 13 32 18 W 1012,7 10
27.04.2017 22:00:00 7,6 6,0 29 16 32 18 W 1012,9 10
27.04.2017 21:00:00 7,5 5,8 35 19 36 19 WZW 1012,9 10
27.04.2017 20:00:00 7,7 5,2 35 19 36 19 WZW 1012,9 10
27.04.2017 19:00:00 7,4 4,6 39 21 40 21 WZW 1013,2 10
27.04.2017 18:00:00 7,6 4,2 39 21 40 21 WZW 1013,4 10
27.04.2017 17:00:00 7,7 3,5 39 21 40 21 WZW 1013,8 10
27.04.2017 16:00:00 7,2 3,1 34 18 36 19 W 1014,0 10
27.04.2017 15:00:00 7,4 3,1 34 18 32 18 W 1014,3 10
27.04.2017 14:00:00 7,3 0,2 29 16 32 18 W 1014,6 10
27.04.2017 13:00:00 7,0 0,9 28 15 32 18 W 1014,8 10
27.04.2017 12:00:00 6,7 1,8 26 14 32 18 W 1015,3 10
27.04.2017 11:00:00 6,7 1,3 28 15 29 16 W 1015,3 10
27.04.2017 10:00:00 6,5 1,5 21 11 22 12 W 1015,4 10
27.04.2017 09:00:00 5,9 0,6 22 12 36 19 WNW 1015,4 10
27.04.2017 08:00:00 4,8 1,4 42 23 43 23 NW 1015,0 10
27.04.2017 07:00:00 6,2 0,4 29 16 29 16 WNW 1015,0 10
27.04.2017 06:00:00 5,6 0,4 26 14 32 18 N 1015,3 10
27.04.2017 05:00:00 6,5 -0,1 16 9 22 12 NNW 1015,2 10
27.04.2017 04:00:00 6,5 -1,6 21 11 25 14 NNW 1015,5 10
27.04.2017 03:00:00 6,6 -0,6 26 14 29 16 NW 1015,5 10
27.04.2017 02:00:00 6,6 0,5 16 9 29 16 N 1015,7 10
27.04.2017 01:00:00 6,5 0,8 22 12 36 19 NNW 1015,8 10
27.04.2017 00:00:00 7,0 0,0 24 13 29 16 NNW 1015,6 10
26.04.2017 23:00:00 7,0 -0,9 26 14 29 16 NNW 1015,3 10
26.04.2017 22:00:00 7,2 0,2 26 14 29 16 N 1015,1 10
26.04.2017 21:00:00 7,3 0,1 26 14 29 16 N 1014,8 10
26.04.2017 20:00:00 7,2 0,8 28 15 29 16 N 1014,6 10
26.04.2017 19:00:00 7,1 1,9 26 14 29 16 N 1014,2 10
26.04.2017 18:00:00 6,9 1,7 26 14 29 16 N 1014,1 10
26.04.2017 17:00:00 6,9 1,0 26 14 29 16 N 1013,9 10
26.04.2017 16:00:00 6,9 1,0 22 12 25 14 NNW 1013,7 10
26.04.2017 15:00:00 6,6 1,7 26 14 25 14 NW 1013,4 10
26.04.2017 14:00:00 6,3 0,6 13 7 18 10 NNW 1013,3 10
26.04.2017 13:00:00 6,3 0,8 15 8 22 12 OZO 1013,0 10
26.04.2017 12:00:00 5,8 1,2 16 9 18 10 NNW 1012,6 10
26.04.2017 11:00:00 5,8 0,4 21 11 36 19 NW 1011,9 10
26.04.2017 10:00:00 5,2 1,6 28 15 40 21 WNW 1011,1 10
26.04.2017 09:00:00 6,0 1,4 22 12 32 18 NW 1011,0 10
26.04.2017 08:00:00 6,5 -0,8 11 6 25 14 NNW 1010,7 10
26.04.2017 07:00:00 6,5 -1,6 16 9 22 12 NNW 1010,2 10
26.04.2017 06:00:00 6,7 0,2 16 9 25 14 NNW 1009,8 10
26.04.2017 05:00:00 6,7 -1,8 22 12 25 14 NW 1009,4 10
26.04.2017 04:00:00 6,6 -1,0 22 12 32 18 NW 1009,4 10
26.04.2017 03:00:00 6,5 -2,5 28 15 36 19 NNW 1009,1 10
26.04.2017 02:00:00 6,6 -0,6 22 12 25 14 NW 1009,3 10
26.04.2017 01:00:00 6,6 -0,5 24 13 29 16 NW 1009,2 10
26.04.2017 00:00:00 6,5 -0,8 22 12 25 14 NNW 1009,0 10
25.04.2017 23:00:00 6,5 -0,1 26 14 29 16 NNW 1008,8 10
25.04.2017 22:00:00 6,7 1,2 29 16 40 21 WNW 1008,4 10
25.04.2017 21:00:00 6,7 1,3 31 17 40 21 WNW 1008,0 10
25.04.2017 20:00:00 6,7 1,5 35 19 36 19 WNW 1007,7 10
25.04.2017 19:00:00 6,2 1,8 35 19 47 25 WNW 1007,5 10
25.04.2017 18:00:00 6,2 2,2 37 20 40 21 W 1007,6 10
25.04.2017 17:00:00 6,2 1,9 29 16 43 23 W 1007,6 10
25.04.2017 16:00:00 5,9 1,4 31 17 43 23 W 1007,4 10
25.04.2017 15:00:00 6,2 -2,1 31 17 32 18 W 1007,7 10
25.04.2017 14:00:00 6,0 0,1 9 5 29 16 NW 1007,4 10
25.04.2017 13:00:00 4,0 0,6 21 11 50 27 WNW 1007,4 10
25.04.2017 12:00:00 5,0 0,0 29 16 47 25 N 1006,5 10
25.04.2017 11:00:00 4,2 1,4 46 25 47 25 N 1005,4 10
25.04.2017 10:00:00 4,3 0,9 41 22 43 23 NNW 1004,2 10
25.04.2017 09:00:00 4,9 1,0 44 24 43 23 NW 1002,9 10
25.04.2017 08:00:00 4,5 0,6 35 19 54 29 WNW 1002,2 10
25.04.2017 07:00:00 4,7 -1,0 29 16 36 19 WNW 1002,3 10
25.04.2017 06:00:00 5,4 1,6 18 10 32 18 WZW 1002,4 10
25.04.2017 05:00:00 5,9 0,7 24 13 29 16 W 1002,8 10
25.04.2017 04:00:00 5,5 2,1 21 11 36 19 W 1003,4 10
25.04.2017 03:00:00 4,9 2,7 41 22 58 31 WNW 1003,5 10
25.04.2017 02:00:00 7,2 3,0 22 12 25 14 W 1004,4 10
25.04.2017 01:00:00 7,2 3,1 16 9 18 10 WZW 1005,2 10
25.04.2017 00:00:00 7,1 3,4 13 7 14 8 WZW 1006,0 10
24.04.2017 23:00:00 7,1 2,4 13 7 14 8 WNW 1006,7 10
24.04.2017 22:00:00 7,1 2,5 9 5 22 12 W 1007,3 10
24.04.2017 21:00:00 6,9 2,8 13 7 25 14 W 1007,8 10
24.04.2017 20:00:00 7,0 4,1 16 9 22 12 WNW 1008,0 10
24.04.2017 19:00:00 7,1 2,7 26 14 29 16 WNW 1008,8 10
24.04.2017 18:00:00 7,5 3,5 26 14 29 16 WNW 1009,2 10
24.04.2017 17:00:00 7,8 2,6 26 14 29 16 WNW 1009,8 10
24.04.2017 16:00:00 7,4 4,2 31 17 32 18 WNW 1010,1 10
24.04.2017 15:00:00 7,7 5,0 37 20 36 19 WNW 1010,2 10
24.04.2017 14:00:00 9,2 6,4 34 18 36 19 W 1010,7 10
24.04.2017 13:00:00 9,4 6,5 37 20 36 19 W 1011,1 10
24.04.2017 12:00:00 9,3 6,5 35 19 36 19 W 1011,6 10
24.04.2017 11:00:00 9,3 6,8 39 21 40 21 W 1011,7 10
24.04.2017 10:00:00 9,2 6,5 39 21 40 21 W 1011,7 10
24.04.2017 09:00:00 9,2 5,7 35 19 40 21 WZW 1012,4 10
24.04.2017 08:00:00 9,4 6,8 37 20 40 21 WZW 1012,7 10
24.04.2017 07:00:00 8,2 4,7 41 22 43 23 ZW 1013,2 10
24.04.2017 06:00:00 8,4 3,9 41 22 43 23 ZZW 1013,8 10
24.04.2017 05:00:00 8,4 3,4 41 22 43 23 ZZW 1015,0 10
24.04.2017 04:00:00 8,2 2,8 34 18 36 19 ZZW 1016,2 10
24.04.2017 03:00:00 7,6 3,8 24 13 36 19 ZZW 1017,5 10
24.04.2017 02:00:00 7,5 3,8 31 17 32 18 ZZW 1018,9 10
24.04.2017 01:00:00 7,9 3,8 29 16 29 16 ZZW 1020,1 10
24.04.2017 00:00:00 7,9 3,8 21 11 29 16 ZW 1021,1 10
23.04.2017 23:00:00 8,3 3,1 22 12 22 12 WZW 1022,1 10
23.04.2017 22:00:00 7,9 3,2 18 10 18 10 WZW 1022,7 10
23.04.2017 21:00:00 7,8 2,9 18 10 18 10 W 1023,1 10
23.04.2017 20:00:00 7,7 1,9 21 11 25 14 W 1023,5 10
23.04.2017 19:00:00 7,7 1,9 22 12 25 14 WNW 1023,8 10
23.04.2017 18:00:00 7,5 1,8 26 14 32 18 WNW 1023,9 10
23.04.2017 17:00:00 7,2 2,2 31 17 36 19 WNW 1024,2 10
23.04.2017 16:00:00 7,0 1,1 35 19 36 19 NW 1024,2 10
23.04.2017 15:00:00 6,7 1,2 39 21 40 21 WNW 1024,4 10
23.04.2017 14:00:00 6,9 0,0 42 23 43 23 NW 1024,4 10
23.04.2017 13:00:00 6,7 0,5 42 23 43 23 NW 1024,5 10
23.04.2017 12:00:00 6,3 0,9 44 24 47 25 WNW 1024,3 10
23.04.2017 11:00:00 6,4 0,7 44 24 47 25 NW 1024,3 10
23.04.2017 10:00:00 6,5 2,1 50 27 50 27 NW 1024,1 10
23.04.2017 09:00:00 6,3 0,4 50 27 54 29 NW 1023,3 10
23.04.2017 08:00:00 5,5 1,9 42 23 54 29 NNW 1023,3 10
23.04.2017 07:00:00 5,8 1,2 44 24 54 29 NW 1022,8 10
23.04.2017 06:00:00 5,4 2,3 29 16 58 31 NW 1023,5 10
23.04.2017 05:00:00 6,7 -0,7 41 22 54 29 NNW 1023,3 10
23.04.2017 04:00:00 6,5 0,9 46 25 50 27 NW 1022,7 10
23.04.2017 03:00:00 6,4 -0,5 46 25 50 27 NW 1023,3 10
23.04.2017 02:00:00 6,6 0,7 48 26 50 27 NW 1023,5 10
23.04.2017 01:00:00 6,4 1,9 48 26 47 25 NNW 1023,6 10
23.04.2017 00:00:00 6,6 0,9 48 26 50 27 NW 1023,5 10
22.04.2017 23:00:00 6,9 1,7 39 21 50 27 NNW 1023,7 10
22.04.2017 22:00:00 6,7 1,5 48 26 50 27 NW 1023,7 10
22.04.2017 21:00:00 6,5 1,9 46 25 58 31 NW 1023,3 10
22.04.2017 20:00:00 6,7 2,4 37 20 58 31 NW 1023,1 10
22.04.2017 19:00:00 7,0 2,4 50 27 58 31 NW 1023,5 10
22.04.2017 18:00:00 6,9 2,0 52 28 54 29 NW 1023,3 10
22.04.2017 17:00:00 7,0 1,9 55 30 58 31 NW 1023,6 10
22.04.2017 16:00:00 7,3 0,7 43 23 50 27 NW 1023,6 20
22.04.2017 15:00:00 7,3 1,3 50 27 50 27 NW 1024,2 10
22.04.2017 14:00:00 7,1 0,8 50 27 50 27 NW 1024,2 10
22.04.2017 13:00:00 7,3 -0,2 54 29 54 29 WNW 1024,3 10
22.04.2017 12:00:00 7,5 0,2 50 27 54 29 NW 1024,1 10
22.04.2017 11:00:00 7,2 -0,7 50 27 65 35 NW 1023,9 10
22.04.2017 10:00:00 6,8 1,5 44 24 50 27 NW 1024,2 10
22.04.2017 09:00:00 6,4 1,3 52 28 65 35 NW 1024,4 10
22.04.2017 08:00:00 5,5 2,3 46 25 65 35 NNW 1023,0 10
22.04.2017 07:00:00 7,2 -0,7 52 28 58 31 NW 1023,2 10
22.04.2017 06:00:00 7,1 -0,1 50 27 50 27 NW 1023,5 10
22.04.2017 05:00:00 7,2 1,3 44 24 47 25 NW 1023,9 10
22.04.2017 04:00:00 6,9 1,9 44 24 54 29 NNW 1024,2 10
22.04.2017 03:00:00 7,7 1,4 52 28 50 27 NW 1023,7 10
22.04.2017 02:00:00 7,8 2,5 44 24 47 25 NW 1023,8 10

tt = temperatuur
td = dauwpunt
ff = windsnelheid
fx = windstoten
dd = windrichting
ppp = luchtdruk
vv = zicht

Weerstations in de omgeving